Regional Weather Roundup
Issued by NWS

Home | Current Version | Previous Version | Graphics & Text | Print | Product List | Glossary On
Versions: 1 2 3 4 5 6 7 8 9 10 11 12 13 14 15 16 17 18 19 20 21 22 23 24 25 26 27 28 29 30 31 32 33 34 35 36 37 38 39 40 41 42 43 44 45 46 47 48 49 50
000
ASUS45 KBOU 180007
RWRCO

WEATHER ROUNDUP FOR COLORADO
NATIONAL WEATHER SERVICE DENVER/BOULDER CO
600 PM MDT FRI APR 17 2015

NOTE: "FAIR" INDICATES FEW OR NO CLOUDS BELOW 12000 FEET WITH NO
SIGNIFICANT WEATHER AND/OR OBSTRUCTIONS TO VISIBILITY.

COZ001>005-013-030-031-180100-
...NORTHWEST COLORADO...

CITY           SKY/WX    TMP DP  RH WIND       PRES   REMARKS
CRAIG          CLOUDY    47  37  68 N7        29.96R
HAYDEN         CLOUDY    45  28  53 NE9       29.95R
MEEKER         CLOUDY    38  34  85 MISG      29.98R
MOUNT WERNER   NOT AVBL
STEAMBOAT SPGS CLOUDY    43  22  43 NE13G20   29.94S
WALDEN         CLOUDY    34  30  86 NW5       30.01R WCI  30
$$

COZ006>008-011-180100-
...WEST CENTRAL VALLEYS...

CITY           SKY/WX    TMP DP  RH WIND       PRES   REMARKS
GRAND JUNCTION LGT RAIN  36  35  96 CALM      30.02R
MONTROSE       LGT RAIN  39  33  79 CALM      30.02R
EAGLE          MOSUNNY   37  34  87 W7        30.00R
RIFLE          LGT RAIN  39  34  82 MISG      30.02R
DELTA          CLOUDY    43  35  71 N3        30.00S
NUCLA          CLOUDY    37  34  87 CALM      30.06S
$$

COZ017>023-064>068-180100-
...SOUTHWEST COLORADO...

CITY           SKY/WX    TMP DP  RH WIND       PRES   REMARKS
DURANGO        PTSUNNY   42  16  34 SW9       30.01R
CORTEZ         CLOUDY    42  25  50 SW9       30.04R
PAGOSA SPRINGS CLOUDY    38  18  45 SW15G21   30.03R
TELLURIDE      LGT SNOW  28  25  86 W13       30.02R WCI  18
WOLF CREEK PAS CLOUDY    16  12  86 SW16G23   30.04S WCI   0
$$

COZ009-010-012-014-032>034-037-058>063-180100-
...CENTRAL COLORADO...

CITY           SKY/WX    TMP DP  RH WIND       PRES   REMARKS
ASPEN          PTSUNNY   31  27  85 N6        29.97R WCI  25
BUENA VISTA    PTSUNNY   32  23  69 W8        30.02S WCI  25
COPPER MTN     MOSUNNY   23   3  42 SE29      29.99R WCI   6
BERTHOUD PASS  PTSUNNY   16   9  73 MISG      30.05R
COTTONWOOD PAS PTSUNNY   28  23  80 CALM      30.02S
GUNNISON       CLOUDY    28  25  86 SW6       30.04R VSB 1   WCI  22
KREMMLING      PTSUNNY   41  19  42 S13       29.97S
LEADVILLE      CLOUDY    24  13  62 VRB6      30.01R WCI  17
MONARCH PASS     N/A     18  14  86 MISG      30.11R
SALIDA         PTSUNNY   40  25  55 CALM      30.07F
SUNLIGHT       SNOW      25  23  93 CALM      30.04R VSB 1/4
WILKERSON PASS PTSUNNY   23  16  74 SW3       30.06S
$$

COZ069>075-180100-
...SAN LUIS VALLEY/SANGRE DE CRISTO MOUNTAINS...

CITY           SKY/WX    TMP DP  RH WIND       PRES   REMARKS
ALAMOSA        PTSUNNY   40   9  28 SW15      29.98R
LA VETA PASS   PTSUNNY   27  14  59 S9G21     29.99F WCI  17
SAGUACHE       CLOUDY    34  28  80 SE13      30.01R WCI  25
$$

COZ035-036-038>040-180100-
...NORTHERN COLORADO FRONT RANGE...

CITY           SKY/WX    TMP DP  RH WIND       PRES   REMARKS
DENVER INTL AP PTSUNNY   50  37  61 NW16      29.96F
DMNS CITY PARK   N/A     49  36  61 N9G17     29.98R
AURORA         MOSUNNY   48  37  65 N9        29.97S
FRONT RANGE AP PTSUNNY   52  37  58 NW13      29.97S
ERIE MUNI ARPT MOSUNNY   48  39  70 N14G20    29.98S
BOULDER MUN AP MOSUNNY   46  37  71 N9        29.98S
CENTENNIAL     PTSUNNY   47  29  49 N6        29.96F
BROOMFIELD     MOSUNNY   48  39  71 N12       29.99S
FORT COLLINS   CLOUDY    46  37  71 N12       30.01S
LONGMONT       CLOUDY    50  38  63 N14       30.00S
$$

COZ041-046-047-076>085-087-088-180100-
...PIKES PEAK/PALMER DIVIDE AND SOUTHERN FOOTHILLS...

CITY           SKY/WX    TMP DP  RH WIND       PRES   REMARKS
COLO. SPRINGS  PTSUNNY   48  14  25 SW7       29.96S
A. F. ACADEMY  MOSUNNY   48  13  25 S9        29.96S
ELLICOTT         N/A    N/A N/A N/A NE5       29.96F
FALCON         CLOUDY    46  13  26 CALM      29.98F
FORT CARSON    PTSUNNY   51  19  28 SW9       29.94S
LIMON          PTSUNNY   51  27  39 E26       29.95R
MONUMENT HILL  PTSUNNY   41  23  48 S3        29.98R
TRINIDAD       CLOUDY    49  24  37 NW7       29.94R
$$

COZ042>045-048>051-090-091-180100-
...NORTHEAST COLORADO...

CITY           SKY/WX    TMP DP  RH WIND       PRES   REMARKS
GREELEY ARPT   CLOUDY    46  37  71 N15       29.99F
AKRON          CLOUDY    52  50  93 E5        29.94R
BURLINGTON     MOSUNNY   62  47  57 SE16      29.91S
WRAY           PTSUNNY   66  42  41 SE16G22   29.93S
STERLING       PTSUNNY   55  46  71 SE6       29.94R
HOLYOKE        MOSUNNY   61  52  72 E10       29.95S
FORT MORGAN    CLOUDY    48  41  76 NW20G26   29.96R
$$

COZ086-089-092>099-180100-
...SOUTHEAST COLORADO...

CITY           SKY/WX    TMP DP  RH WIND       PRES   REMARKS
PUEBLO         PTSUNNY   52  27  38 W9        29.93F
LA JUNTA       CLOUDY    54  32  43 W24       29.89R
LAMAR          SUNNY     66  15  14 S16       29.85S
SPRINGFIELD      N/A     62  11  13 S16       29.90S
$$



USA.gov is the U.S. government's official web portal to all federal, state and local government web resources and services.